Regional Weather Roundup
Issued by NWS

Home | Current Version | Previous Version | Graphics & Text | Print | Product List | Glossary Off
Versions: 1 2 3 4 5 6 7 8 9 10 11 12 13 14 15 16 17 18 19 20 21 22 23 24 25 26 27 28 29 30 31 32 33 34 35 36 37 38 39 40 41 42 43 44 45 46 47 48 49 50

767
ASUS43 KFSD 212102
RWRSD

WEATHER ROUNDUP FOR SOUTH DAKOTA
NATIONAL WEATHER SERVICE SIOUX FALLS SD
400 PM CDT SAT APR 21 2018

NOTE: "FAIR" INDICATES FEW OR NO CLOUDS BELOW 12,000 FEET WITH NO
SIGNIFICANT WEATHER AND/OR OBSTRUCTIONS TO VISIBILITY.


SDZ001>005-009-010-012>017-212200-
NORTHWEST AND NORTH CENTRAL SOUTH DAKOTA

CITY           SKY/WX    TMP DP  RH WIND       PRES   REMARKS
BUFFALO          N/A     62  35  36 S25G32    30.03S
FAITH            N/A     51  39  63 SE21      30.17F
MOBRIDGE       SUNNY     58  35  42 S26G33    30.21F
$$

SDZ012>016-024>037-041>051-057-063-072>074-212200-
SOUTHWEST AND SOUTH CENTRAL SOUTH DAKOTA

CITY           SKY/WX    TMP DP  RH WIND       PRES   REMARKS
RAPID CTY ARPT SUNNY     54  37  52 S17G28    30.15F
PIERRE         CLOUDY    51  38  60 S20       30.25F
CUSTER         CLOUDY    47  30  51 CALM      30.13F
ELLSWORTH AFB  SUNNY    N/A N/A N/A S20G30    30.14F
PHILIP         CLOUDY    48  40  73 S15       30.23S
PINE RIDGE     CLOUDY    43  40  89 S9        30.20F
SPEARFISH      FAIR      61  36  39 W12G17    30.08F
WINNER         CLOUDY    47  39  74 E9        30.26F
$$

SDZ004>011-016>023-039-040-212200-
NORTHEAST SOUTH DAKOTA

CITY           SKY/WX    TMP DP  RH WIND       PRES   REMARKS
ABERDEEN       MOSUNNY   60  33  36 S20       30.29F
WATERTOWN      MOSUNNY   54  36  50 S9        30.30F
BROOKINGS      CLOUDY    50  37  61 SE8       30.32F
SISSETON         N/A     58  39  49 S13       30.29F
$$

SDZ017-020-022-023-036>040-048>070-212200-
SOUTHEAST SOUTH DAKOTA

CITY           SKY/WX    TMP DP  RH WIND       PRES   REMARKS
SIOUX FALLS    CLOUDY    50  36  58 E9        30.30F
HURON          CLOUDY    47  36  65 CALM      30.30F
CHAMBERLAIN    CLOUDY    48  44  83 E6        30.28F
MITCHELL       CLOUDY    43  37  79 NW5       30.30F
YANKTON        CLOUDY    51  33  50 E8        30.28F
$$

ABBREVIATIONS USED IN REMARKS
   TC - TEMPERATURE IN CELSIUS
  WCI - WIND CHILL INDEX
   HX - HEAT INDEX
  VSB - VISIBILITY





USA.gov is the U.S. government's official web portal to all federal, state and local government web resources and services.